Location: Bernadets
(43.3537°N, 0.3167°E)
Time: 08:11:16
(UTC+00:00)

Cosmos 332 Rocket - Pass Details

Date: 24 October 2021
Orbit: 682 x 703 km, 74.0° (Epoch: 02 December)

Event Time Altitude Azimuth Distance (km) Brightness Sun altitude
Rises 17:38:09 0° 176° (S) 3,072 7.2 -7.4°
Reaches altitude 10° 17:40:36 10° 168° (SSE) 2,157 6.3 -7.8°
Maximum altitude 17:45:01 36° 102° (ESE) 1,103 4.4 -8.6°
Drops below altitude 10° 17:49:27 10° 37° (NE) 2,162 5.9 -9.4°
Sets 17:51:55 0° 29° (NNE) 3,081 6.8 -9.8°
